Weather History for Aniak, AK

Change the Weather History Date:

Sunday, January 13, 2013

  Actual Average Record
Temperature  
Mean Temperature 36 °F -  
Max Temperature 39 °F 11 °F 39 °F (1997)
Min Temperature 32 °F 0 °F -41 °F (2012)
Degree Days  
Heating Degree Days 30    
Moisture  
Dew Point 31 °F    
Average Humidity 79    
Maximum Humidity 93    
Minimum Humidity 68    
Precipitation  
Precipitation 0.12 in - - ()
Sea Level Pressure  
Sea Level Pressure 29.42 in    
Wind  
Wind Speed 9 mph (SE)    
Max Wind Speed 17 mph    
Max Gust Speed 25 mph    
Visibility 10 miles    
Events      
Averages and records for this station are not official NWS values.
T = Trace of Precipitation, MM = Missing Value Source: NWS Daily Summary

Daily Weather History Graph

Daily Weather History Graph

Search for Another Location

Airport:

Trip Planner

Search our weather history database for the weather conditions in past years. The results will help you decide how hot, cold, wet, or windy it might be!

Date:

Astronomy

Jan. 13, 2013 Rise Set
Actual Time 10:41 AM AKST 4:53 PM AKST
Civil Twilight 9:43 AM AKST 5:51 PM AKST
Nautical Twilight 8:45 AM AKST 6:49 PM AKST
Astronomical Twilight 7:52 AM AKST 7:41 PM AKST
Moon 10:46 AM AKST (1/13) 8:53 PM AKST (1/13)
Length of Visible Light 8h 07m
Length of Day
6h 12m
Waxing Crescent, 6% of the Moon is Illuminated
Jan 13
Waxing Crescent
Jan 18
First Quarter
Jan 26
Full
Feb 3
Last Quarter
Feb 9
New

Hourly Weather History & Observations

Time (AKST) Temp. Windchill Dew Point Humidity Pressure Visibility Wind Dir Wind Speed Gust Speed Precip Events Conditions
12:16 AM 41.0 °F 33.1 °F 32.0 °F 70% 29.38 in 10.0 mi SE 15.0 mph 21.9 mph N/A   Overcast
12:36 AM 41.0 °F 32.5 °F 32.0 °F 70% 29.36 in 10.0 mi SE 17.3 mph 25.3 mph N/A   Overcast
12:56 AM 41.0 °F 32.8 °F 33.8 °F 76% 29.37 in 10.0 mi SE 16.1 mph 24.2 mph N/A   Scattered Clouds
1:16 AM 41.0 °F 33.5 °F 33.8 °F 76% 29.38 in 10.0 mi SE 13.8 mph 24.2 mph N/A   Clear
1:36 AM 41.0 °F 33.1 °F 33.8 °F 76% 29.38 in 10.0 mi SE 15.0 mph 21.9 mph N/A   Clear
1:56 AM 41.0 °F 33.5 °F 33.8 °F 76% 29.39 in 10.0 mi SE 13.8 mph 24.2 mph N/A   Clear
2:16 AM 39.2 °F 32.0 °F 33.8 °F 81% 29.40 in 10.0 mi SE 11.5 mph 17.3 mph N/A   Clear
2:36 AM 39.2 °F 33.6 °F 33.8 °F 81% 29.40 in 10.0 mi SE 8.1 mph - N/A   Clear
2:56 AM 39.2 °F 33.0 °F 33.8 °F 81% 29.40 in 10.0 mi SE 9.2 mph - N/A   Clear
3:16 AM 39.2 °F 32.5 °F 33.8 °F 81% 29.41 in 10.0 mi SE 10.4 mph 18.4 mph N/A   Scattered Clouds
3:36 AM 39.2 °F 31.2 °F 33.8 °F 81% 29.41 in 10.0 mi SE 13.8 mph 20.7 mph N/A   Mostly Cloudy
3:56 AM 39.2 °F 32.5 °F 33.8 °F 81% 29.41 in 10.0 mi SE 10.4 mph 20.7 mph N/A   Overcast
4:16 AM 39.2 °F 33.0 °F 33.8 °F 81% 29.42 in 10.0 mi SSE 9.2 mph 18.4 mph N/A   Overcast
4:36 AM 39.2 °F 32.0 °F 33.8 °F 81% 29.42 in 10.0 mi SE 11.5 mph 18.4 mph N/A   Overcast
4:56 AM 39.2 °F 33.6 °F 33.8 °F 81% 29.42 in 10.0 mi SE 8.1 mph 16.1 mph N/A   Overcast
5:16 AM 39.2 °F 33.0 °F 33.8 °F 81% 29.41 in 10.0 mi SE 9.2 mph 19.6 mph N/A   Overcast
5:36 AM 39.2 °F 33.6 °F 33.8 °F 81% 29.41 in 10.0 mi SE 8.1 mph 21.9 mph N/A   Overcast
5:56 AM 39.2 °F 33.6 °F 33.8 °F 81% 29.41 in 10.0 mi SE 8.1 mph 17.3 mph N/A   Overcast
6:16 AM 39.2 °F 32.5 °F 33.8 °F 81% 29.41 in 10.0 mi SSE 10.4 mph 16.1 mph N/A   Overcast
6:36 AM 39.2 °F 33.0 °F 33.8 °F 81% 29.41 in 10.0 mi SSE 9.2 mph - N/A   Overcast
6:56 AM 39.2 °F 33.6 °F 33.8 °F 81% 29.41 in 10.0 mi SSE 8.1 mph 19.6 mph N/A   Overcast
7:16 AM 39.2 °F 32.5 °F 33.8 °F 81% 29.41 in 10.0 mi SE 10.4 mph 20.7 mph N/A   Overcast
7:36 AM - - - N/A% 29.41 in 10.0 mi SE 12.7 mph 25.3 mph N/A   Overcast
7:56 AM 39.2 °F 31.2 °F 32.0 °F 75% 29.42 in 10.0 mi SE 13.8 mph 18.4 mph N/A   Mostly Cloudy
8:16 AM 39.2 °F 31.6 °F 32.0 °F 75% 29.43 in 10.0 mi SE 12.7 mph 21.9 mph N/A   Partly Cloudy
8:36 AM 39.2 °F 31.6 °F 32.0 °F 75% 29.44 in 10.0 mi SE 12.7 mph 19.6 mph N/A   Partly Cloudy
8:56 AM 39.2 °F 33.0 °F 32.0 °F 75% 29.45 in 10.0 mi SE 9.2 mph - N/A   Scattered Clouds
9:16 AM 39.2 °F 33.0 °F 32.0 °F 75% 29.45 in 10.0 mi SSE 9.2 mph 16.1 mph N/A   Overcast
9:36 AM 39.2 °F 33.6 °F 32.0 °F 75% 29.46 in 10.0 mi SE 8.1 mph - N/A   Overcast
9:56 AM 39.2 °F 33.6 °F 32.0 °F 75% 29.46 in 10.0 mi SSE 8.1 mph - N/A   Overcast
10:16 AM 39.2 °F 33.6 °F 32.0 °F 75% 29.46 in 10.0 mi SE 8.1 mph - N/A   Mostly Cloudy
10:36 AM 39.2 °F 35.9 °F 30.2 °F 70% 29.47 in 10.0 mi SSE 4.6 mph - N/A   Mostly Cloudy
10:56 AM 37.4 °F 34.9 °F 30.2 °F 75% 29.48 in 10.0 mi WSW 3.5 mph - N/A   Partly Cloudy
11:16 AM 37.4 °F - 30.2 °F 75% 29.48 in 10.0 mi Calm Calm - N/A   Mostly Cloudy
11:36 AM 37.4 °F 33.8 °F 30.2 °F 75% 29.49 in 10.0 mi WSW 4.6 mph - N/A   Mostly Cloudy
11:56 AM 37.4 °F 33.8 °F 32.0 °F 81% 29.49 in 10.0 mi SW 4.6 mph - N/A   Mostly Cloudy
12:16 PM 37.4 °F - 30.2 °F 75% 29.49 in 10.0 mi Calm Calm - N/A   Mostly Cloudy
12:36 PM 37.4 °F - 30.2 °F 75% 29.49 in 10.0 mi Calm Calm - N/A   Overcast
12:56 PM 37.4 °F - 30.2 °F 75% 29.49 in 10.0 mi Calm Calm - N/A   Overcast
1:16 PM 37.4 °F - 30.2 °F 75% 29.49 in 10.0 mi Calm Calm - N/A   Scattered Clouds
1:36 PM 37.4 °F - 30.2 °F 75% 29.49 in 10.0 mi Calm Calm - N/A   Clear
1:56 PM 39.2 °F - 30.2 °F 70% 29.48 in 10.0 mi Calm Calm - N/A   Partly Cloudy
2:16 PM 37.4 °F - 30.2 °F 75% 29.48 in 10.0 mi Calm Calm - N/A   Clear
2:36 PM 37.4 °F - 30.2 °F 75% 29.47 in 10.0 mi Calm Calm - N/A   Clear
2:56 PM 37.4 °F - 30.2 °F 75% 29.47 in 10.0 mi Calm Calm - N/A   Clear
3:16 PM 35.6 °F - 28.4 °F 75% 29.46 in 10.0 mi Calm Calm - N/A   Clear
3:36 PM 35.6 °F - 30.2 °F 81% 29.46 in 10.0 mi Calm Calm - N/A   Clear
3:56 PM 35.6 °F - 28.4 °F 75% 29.45 in 10.0 mi Calm Calm - N/A   Clear
4:16 PM 37.4 °F - 30.2 °F 75% 29.45 in 10.0 mi Calm Calm - N/A   Clear
4:36 PM 35.6 °F - 28.4 °F 75% 29.45 in 10.0 mi Calm Calm - N/A   Clear
4:56 PM 33.8 °F 30.8 °F 28.4 °F 81% 29.46 in 10.0 mi ENE 3.5 mph - N/A   Partly Cloudy
5:16 PM 33.8 °F - 28.4 °F 81% 29.45 in 10.0 mi Calm Calm - N/A   Mostly Cloudy
5:36 PM 33.8 °F - 28.4 °F 81% 29.43 in 10.0 mi Calm Calm - N/A   Mostly Cloudy
5:56 PM 33.8 °F - 28.4 °F 81% 29.42 in 10.0 mi Calm Calm - N/A   Scattered Clouds
6:16 PM 33.8 °F - 28.4 °F 81% 29.42 in 10.0 mi Calm Calm - N/A   Scattered Clouds
6:36 PM 32.0 °F - 26.6 °F 80% 29.42 in 10.0 mi Calm Calm - N/A   Scattered Clouds
6:56 PM 33.8 °F 30.8 °F 28.4 °F 81% 29.43 in 10.0 mi East 3.5 mph - N/A   Overcast
7:16 PM 33.8 °F 30.8 °F 30.2 °F 87% 29.43 in 9.0 mi East 3.5 mph - N/A   Overcast
7:36 PM 33.8 °F 29.6 °F 28.4 °F 81% 29.41 in 10.0 mi East 4.6 mph - N/A   Overcast
7:56 PM 33.8 °F - 30.2 °F 87% 29.41 in 10.0 mi Calm Calm - N/A   Overcast
8:36 PM 35.6 °F 32.8 °F 30.2 °F 81% 29.39 in 10.0 mi ENE 3.5 mph - N/A   Overcast
8:56 PM 35.6 °F - 30.2 °F 81% 29.38 in 10.0 mi Calm Calm - N/A   Overcast
9:16 PM 33.8 °F - 30.2 °F 87% 29.36 in 10.0 mi Calm Calm - N/A   Overcast
9:36 PM 35.6 °F 32.8 °F 33.8 °F 93% 29.36 in 10.0 mi East 3.5 mph - N/A   Overcast
10:16 PM 33.8 °F - 30.2 °F 87% 29.34 in 10.0 mi Calm Calm - N/A   Overcast
10:36 PM 33.8 °F 28.6 °F 32.0 °F 93% 29.33 in 6.0 mi ESE 5.8 mph - N/A   Overcast
10:56 PM 35.6 °F 31.7 °F 32.0 °F 87% 29.32 in 5.0 mi SE 4.6 mph - 0.01 in   Overcast
11:16 PM 35.6 °F - 33.8 °F 93% 29.31 in 5.0 mi Calm Calm - 0.01 in   Overcast
11:36 PM 35.6 °F - 33.8 °F 93% 29.31 in 5.0 mi Calm Calm - 0.02 in   Overcast
11:56 PM 35.6 °F - 33.8 °F 93% 29.29 in 3.0 mi Calm Calm - 0.03 in   Overcast